Theta_e
309 321 319 311 312 312 309 308 310 311 313 317 321 324 320 319 323 319 312 306 301 310 317 312 313 313 312 312 308 305 307 305 306 306 307 310 310 311 310 310 310 309 309 309 309 310 309 310 309 309 309 308 308 308 308 307 307 307 306 306 306 306 306 306 306 306 306 306 306 306 306 305 305 305 305 304 305 304 304 304 304 304 304 303 303 303
316 326 316 307 307 306 307 307 308 310 313 318 321 324 321 319 323 316 308 308 304 308 316 310 313 316 311 311 307 303 306 307 306 306 308 310 310 310 311 310 310 309 309 309 309 309 309 310 309 309 309 308 308 308 307 307 307 307 306 306 306 306 306 306 306 306 306 306 306 306 306 306 305 305 305 305 305 305 304 304 304 304 304 304 303 303
325 320 308 304 302 302 306 307 308 312 316 321 320 320 322 318 319 315 308 311 309 309 317 315 314 315 311 312 309 303 307 308 306 307 308 309 310 309 310 310 310 309 310 310 309 310 309 309 309 309 309 308 308 308 308 307 307 307 306 306 306 306 306 306 306 306 306 306 306 306 306 306 306 305 305 305 305 305 304 304 304 304 304 304 304 304
319 311 305 302 300 305 310 307 309 314 316 319 318 318 320 314 314 318 313 312 310 307 313 315 313 314 314 319 317 306 305 307 307 308 308 308 310 309 310 310 310 309 310 310 309 309 309 309 309 309 308 308 308 308 307 307 307 307 306 306 306 306 306 306 306 306 306 306 306 306 306 306 306 305 305 305 305 305 305 304 304 305 305 305 305 304
313 306 303 301 303 309 312 310 313 321 319 316 315 316 317 313 310 315 314 312 312 308 308 312 316 321 322 325 326 313 306 308 307 308 309 309 309 310 310 310 310 310 310 309 309 309 309 309 309 309 308 308 308 307 307 307 307 307 306 306 306 306 306 306 306 306 306 306 306 306 306 306 306 306 306 306 306 306 306 305 305 305 305 305 305 305
310 302 302 306 310 312 313 313 314 318 320 317 313 310 310 311 309 313 314 314 321 317 308 309 317 329 333 326 324 322 319 318 310 306 308 309 309 310 310 310 310 310 310 309 309 309 309 309 309 309 308 308 308 307 307 307 307 307 307 307 307 306 306 306 306 306 307 307 307 307 307 307 308 307 307 307 307 307 307 307 306 306 306 306 305 305
307 302 303 309 314 314 315 315 310 311 321 317 310 306 307 309 310 314 316 315 321 318 307 307 312 324 335 326 320 323 327 327 315 307 307 309 309 309 310 310 310 310 310 310 310 309 309 309 309 308 308 308 308 308 307 307 307 307 307 307 307 307 306 307 306 306 307 307 307 307 307 308 308 308 308 307 307 307 307 307 307 306 306 306 306 305
306 305 306 310 313 315 317 315 309 309 318 315 307 306 309 309 310 312 314 314 317 315 311 310 311 315 328 328 324 319 320 321 316 311 310 309 309 309 309 310 310 310 310 310 310 309 308 309 309 308 308 309 308 308 308 308 308 307 307 307 307 307 307 307 307 307 307 307 307 307 307 308 307 307 307 307 307 307 307 307 306 307 306 306 306 306
304 309 310 310 314 315 313 310 307 307 312 311 305 305 307 307 310 310 312 316 314 314 319 317 310 313 329 336 324 314 314 316 315 317 314 309 309 309 309 310 310 310 310 309 309 309 309 309 309 309 309 309 308 308 308 308 308 308 307 307 307 307 307 307 307 307 307 307 307 307 307 307 307 307 307 307 307 306 306 306 306 306 306 306 306 306
303 307 306 307 311 311 309 305 304 308 311 306 302 305 306 307 309 309 311 316 314 317 324 319 309 312 332 340 322 310 316 319 318 321 314 308 309 309 309 310 310 310 309 309 309 309 309 309 309 309 309 309 308 308 308 308 308 308 308 307 307 307 307 307 307 307 307 307 307 307 307 307 307 307 306 306 307 306 306 306 306 306 306 306 306 305
304 305 303 304 306 305 304 302 301 304 305 303 304 308 309 311 310 310 314 315 315 325 325 314 309 312 323 334 324 315 321 324 320 319 313 308 309 310 310 310 310 310 309 309 309 309 309 309 309 309 308 308 308 308 308 308 308 308 308 308 307 307 307 307 307 307 307 306 307 306 306 306 306 306 306 306 306 306 306 306 306 305 305 305 305 305
307 309 306 303 303 301 305 306 301 300 301 303 311 314 313 318 315 316 324 319 317 331 322 310 310 311 317 328 323 319 323 322 318 317 314 310 309 309 310 310 310 310 309 310 310 309 309 309 309 308 308 308 308 308 308 308 308 308 308 308 307 307 307 306 306 306 306 306 306 306 306 306 306 306 306 306 306 306 305 305 305 305 305 305 305 305
313 311 306 303 303 302 307 313 306 304 305 307 317 322 320 327 324 322 332 323 320 327 314 309 312 311 318 324 320 321 323 318 313 312 313 310 309 310 310 310 310 310 310 309 309 309 309 308 309 308 308 308 308 308 308 307 308 307 307 306 307 307 306 306 306 306 306 306 306 306 306 306 305 305 305 305 305 305 305 305 305 305 305 304 304 304
315 310 307 307 307 302 305 314 312 312 312 310 318 325 323 325 322 324 330 319 317 321 311 307 312 316 322 318 316 321 317 310 306 307 309 310 310 310 310 310 310 309 310 309 308 308 308 308 308 308 308 308 308 307 307 307 306 306 306 306 306 307 306 306 306 306 306 306 306 306 306 306 306 306 306 305 305 305 305 305 305 304 304 304 304 304
317 315 311 308 309 304 304 309 309 312 314 311 312 316 320 322 316 320 327 318 314 320 316 310 313 325 325 313 313 312 307 305 306 307 309 309 310 310 310 310 310 310 310 308 308 308 308 308 308 308 307 307 307 306 306 306 305 306 306 306 306 306 306 306 306 306 306 306 306 306 306 306 306 306 306 305 305 305 305 304 304 304 304 304 304 304
316 315 309 303 303 303 306 304 301 309 314 309 307 313 316 318 319 317 315 314 313 319 323 317 318 328 321 312 312 307 305 306 306 307 309 308 309 310 310 310 309 310 309 307 308 308 307 307 306 307 307 306 306 306 306 306 305 306 306 306 306 306 306 306 306 307 307 306 307 307 307 307 306 306 305 305 305 305 304 304 304 304 304 304 304 304
315 314 307 303 303 300 303 302 299 306 311 308 311 316 311 307 317 319 309 307 309 316 324 319 320 327 318 314 317 312 310 310 307 308 308 308 309 309 309 310 309 310 309 307 308 307 306 306 306 306 306 306 306 305 305 306 305 306 306 306 306 306 306 307 307 307 307 307 307 307 307 307 306 306 306 305 305 304 304 304 304 304 304 304 304 304
314 316 308 304 307 302 300 301 300 301 305 310 313 313 307 304 313 318 314 316 316 319 327 321 319 327 323 320 320 313 312 314 311 310 307 306 309 308 309 310 310 310 308 307 307 306 306 306 305 306 305 305 305 305 305 305 305 305 305 306 306 306 307 307 307 307 307 307 307 307 307 307 306 306 306 305 305 304 304 304 304 304 304 303 303 303
310 316 313 304 307 305 299 302 306 302 301 307 308 305 307 313 316 315 317 321 319 317 325 324 319 319 320 324 323 315 314 315 314 312 310 308 307 308 309 310 310 309 307 307 307 306 306 305 305 305 305 305 305 305 305 305 305 305 305 305 306 306 307 306 307 307 307 307 307 307 307 306 306 306 306 305 305 305 305 305 304 304 303 303 302 302
308 312 315 307 304 305 303 307 313 311 302 302 304 303 306 314 317 315 315 317 318 319 321 326 326 323 323 327 327 319 314 313 313 314 312 308 307 309 310 310 310 308 307 307 306 306 306 305 305 305 305 305 305 305 305 304 304 305 305 305 305 306 306 306 306 306 307 307 306 306 306 306 306 306 305 305 305 305 305 304 303 303 302 302 301 301
309 309 314 311 304 306 311 311 314 318 311 307 311 311 309 310 310 311 311 311 317 324 322 321 326 333 332 324 322 321 315 311 311 314 310 306 308 311 310 310 311 308 307 307 306 306 306 305 305 305 305 305 305 305 304 304 304 304 304 305 305 305 305 306 306 306 306 306 305 305 305 305 305 305 305 304 304 304 303 303 302 302 301 300 300 299
311 312 317 316 311 315 317 307 302 308 309 311 317 317 315 315 315 317 316 311 311 316 320 319 320 328 329 318 319 323 316 309 307 307 307 307 309 311 310 311 311 308 307 306 305 306 305 305 305 305 305 305 304 304 304 303 304 304 304 304 304 305 305 305 305 305 305 305 305 305 305 305 304 304 304 303 303 303 302 302 301 300 299 299 299 298
306 312 316 317 317 314 306 298 295 298 300 303 307 308 312 316 320 324 321 316 311 308 311 313 315 322 324 314 315 315 308 304 304 303 305 308 310 312 311 311 310 308 307 306 306 306 305 305 305 305 305 304 304 304 303 303 303 303 304 304 304 305 305 305 304 304 304 304 304 304 304 304 304 303 302 302 302 302 301 301 300 299 299 298 297 297
305 311 314 318 323 312 301 297 295 294 298 304 306 304 308 313 317 321 317 315 315 311 312 314 316 324 324 310 304 302 300 302 304 304 305 307 311 312 310 310 309 308 307 306 306 306 305 305 305 305 305 304 304 303 302 303 303 303 304 303 304 304 304 304 303 303 303 303 304 304 303 303 302 302 302 301 301 300 300 299 299 298 298 297 297 296
307 314 315 317 324 321 314 311 306 301 302 309 310 306 306 309 312 314 311 309 313 315 317 319 319 323 324 314 306 304 304 305 303 304 306 307 310 311 310 310 309 308 307 306 306 306 305 305 305 305 305 304 303 303 302 303 303 303 303 303 303 303 303 303 303 302 302 302 303 303 302 302 301 301 301 300 299 299 298 298 297 297 297 296 296 295
307 312 315 318 320 318 320 320 315 311 309 309 309 306 306 307 309 313 312 312 316 315 313 318 320 319 320 320 316 313 313 312 306 305 306 307 309 311 310 309 308 308 308 306 306 306 306 305 304 304 304 303 303 302 302 302 302 302 302 302 303 303 303 302 302 302 302 301 301 301 301 301 301 300 299 298 298 297 296 296 295 295 295 294 294 293
308 309 311 319 321 316 317 317 311 310 312 311 311 310 308 306 307 312 316 317 318 314 311 314 315 314 315 317 318 318 317 316 310 305 305 307 309 310 310 309 308 308 308 307 306 306 305 305 304 304 303 303 302 302 302 301 302 302 302 302 302 302 302 302 301 301 300 300 300 300 300 300 299 299 298 297 296 295 295 294 294 293 292 292 292 292
311 312 309 312 314 312 311 310 307 308 311 312 312 313 311 308 306 310 314 315 315 315 314 313 312 312 312 312 316 321 320 316 309 304 305 308 309 309 310 308 307 307 307 307 306 306 305 304 304 303 303 303 302 301 301 301 301 301 301 302 302 301 301 300 300 299 299 298 299 299 299 299 297 297 296 295 294 294 293 293 292 291 290 290 290 290
312 313 308 307 311 313 308 306 306 308 310 310 311 313 313 309 307 309 310 310 312 313 313 314 314 314 311 309 313 318 315 311 308 306 307 308 308 309 308 307 306 306 307 307 306 306 305 304 304 303 303 302 302 301 301 301 301 301 301 301 301 300 300 299 299 298 298 297 298 298 297 296 295 295 294 293 293 292 292 291 290 289 289 289 288 288
307 315 310 305 310 315 309 304 304 306 308 310 309 309 310 309 308 308 309 308 309 311 312 312 312 311 309 308 310 311 309 308 307 307 308 308 308 308 307 306 306 305 306 307 306 305 305 304 304 303 302 301 301 301 300 300 300 300 300 300 300 299 299 298 297 297 297 296 296 295 294 294 294 293 292 291 291 290 290 289 288 288 288 288 287 287
303 314 311 306 311 317 309 303 303 305 307 309 309 307 306 306 306 305 305 306 307 308 308 308 308 308 307 307 307 307 308 307 306 306 307 308 308 307 306 306 305 305 306 306 305 305 304 304 303 302 302 301 300 300 300 300 300 300 300 299 299 298 297 297 296 296 295 295 294 292 292 292 292 291 290 290 289 288 288 287 287 287 287 287 287 286
303 309 308 306 312 317 308 303 307 308 307 309 310 308 304 305 307 306 304 305 306 308 308 307 307 308 307 308 306 305 306 304 303 305 306 306 306 305 305 305 305 305 306 306 305 304 303 303 302 302 301 301 300 300 300 300 299 299 299 298 298 297 296 295 295 294 294 293 291 290 291 291 290 289 289 288 288 288 287 287 287 287 286 286 285 285
304 310 311 308 312 316 306 303 309 310 310 312 312 311 308 306 306 305 304 305 305 306 308 307 308 308 309 309 308 307 307 304 303 305 306 306 306 306 306 306 306 306 306 306 305 304 303 303 302 301 301 300 300 299 299 299 298 298 297 297 297 296 295 294 293 293 292 290 290 290 290 289 288 288 288 288 287 287 286 286 286 285 285 284 284 284
302 310 313 307 310 316 308 304 307 309 310 312 311 311 310 308 308 307 306 306 305 305 307 307 308 308 309 309 308 308 308 306 304 306 306 305 306 306 306 306 307 306 306 306 305 304 303 302 301 300 300 300 299 299 298 297 297 297 296 296 295 294 293 292 291 291 290 289 289 289 289 288 288 287 287 286 286 285 285 284 284 283 283 283 283 283
305 307 307 305 307 311 308 306 308 311 312 312 310 308 306 306 308 308 307 306 304 304 306 306 306 306 306 305 304 304 305 305 305 306 306 305 305 306 306 306 306 306 306 305 304 303 302 301 301 300 299 299 299 298 297 296 295 295 295 294 294 292 291 291 290 289 288 288 288 288 288 287 287 286 286 285 284 284 283 283 283 282 282 282 282 282
306 307 307 307 306 307 309 309 310 312 312 309 308 308 304 303 304 305 306 308 306 303 304 305 305 304 303 302 303 303 303 303 304 304 305 305 305 305 305 305 305 306 306 306 305 304 303 302 301 300 299 299 298 297 296 295 295 295 294 293 292 291 290 289 288 288 288 288 288 287 287 286 285 285 284 283 283 283 282 282 282 282 281 281 281 281
302 308 307 306 305 307 312 312 310 308 308 309 309 308 305 305 308 308 307 309 310 307 303 303 304 304 302 302 302 302 301 302 303 304 305 305 305 305 305 305 305 306 306 305 305 303 302 301 300 299 299 298 297 296 295 294 294 294 293 292 291 290 289 288 287 287 287 287 287 286 285 284 283 283 282 282 282 282 281 281 281 281 281 280 280 280
295 303 306 306 308 308 307 309 309 308 310 314 312 306 301 302 305 306 304 307 312 309 302 303 306 305 302 302 300 299 302 304 305 305 305 304 305 305 305 304 304 304 305 304 303 301 300 299 299 298 298 297 296 295 294 294 294 293 292 291 289 288 287 286 287 287 286 286 285 284 283 283 282 281 281 281 281 281 280 280 280 280 280 280 280 279
295 300 305 305 308 307 306 308 310 309 312 315 309 304 301 300 301 303 304 310 313 306 300 303 306 304 301 300 298 300 304 308 307 305 304 304 304 305 305 304 303 303 302 302 301 300 300 298 298 297 296 296 296 294 294 294 293 292 291 289 288 287 286 286 286 285 285 284 283 282 282 281 281 280 280 280 280 280 280 280 280 280 279 279 279 279
299 303 304 303 306 308 307 309 308 306 309 309 306 303 301 300 302 305 308 315 315 305 301 303 304 303 301 299 299 301 305 309 308 305 304 304 304 304 304 303 302 302 301 301 300 299 299 298 297 297 296 295 295 294 293 293 291 290 289 287 286 286 285 285 285 284 283 283 282 281 281 280 280 280 280 280 280 279 279 279 279 279 279 279 279 278
299 302 302 301 304 305 304 307 306 305 308 308 305 303 300 300 305 309 309 312 311 306 304 305 305 305 303 300 300 302 305 306 305 304 304 304 303 303 302 301 302 301 301 300 299 298 298 297 296 296 295 294 294 293 292 291 289 288 287 286 285 285 284 284 283 282 282 281 281 280 280 280 280 279 279 279 279 279 279 279 279 279 278 278 278 278
302 302 300 299 302 303 303 305 305 305 307 305 302 302 301 303 309 309 307 307 307 306 307 306 306 307 304 302 303 304 304 303 302 303 304 303 303 303 301 301 301 300 299 299 298 297 297 296 295 294 293 293 293 292 290 288 287 286 285 285 284 284 283 283 282 281 281 280 280 280 279 279 279 279 279 279 279 279 279 278 278 278 278 278 277 277
305 306 305 300 301 304 304 302 304 309 307 302 301 302 301 306 311 309 306 307 307 307 307 306 307 307 305 304 305 304 303 302 302 302 303 302 302 302 301 301 300 299 299 298 297 296 296 295 294 293 293 292 290 289 287 285 285 284 284 284 283 283 282 282 281 280 280 280 280 279 279 279 279 279 279 279 279 279 278 278 278 278 278 277 277 276
304 306 310 305 302 306 307 304 305 308 305 301 304 307 305 306 308 307 306 306 306 306 307 307 307 307 306 306 305 303 302 302 301 301 302 301 301 300 299 299 299 298 297 296 295 295 294 294 293 292 291 290 287 286 284 284 283 284 283 283 282 282 281 281 280 280 280 279 279 279 279 279 279 279 279 279 278 278 278 278 277 277 277 277 276 275
305 304 308 308 306 306 307 305 303 303 301 301 304 307 307 306 307 306 305 305 305 306 306 306 306 307 307 305 304 302 302 302 301 301 301 301 300 299 298 298 297 296 296 295 294 293 292 292 292 291 288 286 284 284 283 283 283 283 283 282 282 281 280 280 280 280 279 279 279 279 279 278 278 278 278 278 278 278 277 277 277 276 276 276 275 274
302 299 301 307 308 304 303 303 301 299 300 302 303 305 306 306 306 306 305 305 305 306 306 305 305 306 306 305 303 302 303 302 301 301 300 300 299 297 296 295 294 294 294 293 292 291 290 290 290 288 286 284 283 283 283 282 282 282 282 281 281 281 280 280 279 279 279 279 279 278 278 278 278 278 278 277 277 277 276 276 276 275 275 274 274 273
300 298 300 305 308 306 305 306 304 301 301 303 303 303 304 304 305 305 305 305 305 305 305 305 305 305 305 305 304 304 303 302 301 301 300 299 298 297 295 294 293 292 292 292 291 290 289 289 287 286 285 284 283 282 282 282 282 281 281 281 281 280 280 279 279 279 278 278 278 278 278 278 278 277 277 277 276 276 276 275 275 274 273 273 273 272
302 300 302 304 304 304 305 306 304 302 303 304 302 302 303 304 305 305 304 305 305 304 304 304 304 304 304 305 305 304 304 303 302 301 300 299 298 296 294 293 292 291 291 290 290 289 288 287 286 284 283 283 283 282 282 281 281 281 281 281 280 279 279 279 278 278 278 278 278 278 277 277 277 277 276 276 275 275 275 274 273 273 272 272 272 272
302 301 303 305 303 302 303 303 301 302 303 303 303 303 304 305 305 305 304 304 304 304 304 303 303 303 304 304 304 303 303 302 302 301 300 299 298 296 294 292 290 290 289 289 288 287 286 285 284 283 282 282 282 282 281 281 281 280 280 280 279 279 279 278 278 278 277 277 277 277 277 276 276 276 276 275 275 274 273 273 273 272 272 271 271 271
301 302 303 304 303 303 304 303 303 304 304 304 304 305 305 305 305 305 305 304 304 304 304 304 303 303 303 303 303 302 302 302 301 300 299 298 297 295 293 291 289 288 287 287 286 285 283 282 282 282 282 282 282 281 281 281 281 280 279 279 279 278 278 278 277 277 277 277 276 276 276 275 275 275 275 275 274 273 272 272 272 272 272 271 270 269
301 303 303 303 303 304 304 303 304 304 303 304 305 305 305 305 305 305 305 305 305 305 305 304 303 303 303 303 303 302 301 301 300 299 298 296 295 293 291 289 288 287 286 285 284 283 281 281 281 281 281 281 281 281 281 281 280 280 279 278 278 277 277 277 277 276 276 276 276 275 275 275 275 274 274 273 273 272 272 271 271 271 270 270 269 268
Wind_Speed
4 4 4 2 4 3 3 3 4 3 4 5 4 4 3 1 4 3 3 5 4 2 4 4 5 10 13 12 14 18 15 12 14 14 16 17 15 14 13 12 12 10 7 7 6 4 3 2 2 3 3 3 3 2 2 2 3 3 3 3 4 5 6 7 7 8 9 9 9 9 9 9 9 10 10 10 11 12 13 14 14 15 15 16 17 17
4 5 1 4 5 4 3 3 4 4 4 4 5 3 2 1 5 3 1 5 5 2 3 2 6 11 12 11 13 13 9 7 9 10 12 13 11 11 10 10 11 11 8 8 7 5 3 1 1 0 0 1 1 1 1 1 1 2 3 3 4 5 6 7 8 8 9 9 9 9 9 10 9 9 10 9 10 11 12 13 13 14 14 14 15 16
5 3 3 4 5 5 4 3 4 4 5 4 3 3 2 1 4 4 2 4 5 2 4 5 7 12 12 10 11 9 6 6 5 6 8 8 7 7 8 9 11 12 10 9 8 7 4 3 2 2 2 2 2 2 2 2 2 2 3 3 4 4 5 6 7 8 8 9 9 9 9 9 9 8 9 10 11 11 11 11 12 13 13 13 14 15
2 2 3 3 5 5 4 3 4 5 4 3 3 3 1 3 3 3 3 5 4 1 4 5 5 9 9 7 7 6 6 7 6 5 6 6 7 6 7 9 11 12 11 10 10 8 6 4 4 3 4 3 3 3 3 2 2 2 2 2 3 3 4 5 7 8 8 8 9 9 9 9 8 8 8 9 9 10 9 9 10 11 12 12 13 13
1 2 1 4 2 3 3 4 4 4 3 3 2 4 1 1 1 4 4 6 4 1 2 4 5 6 5 5 6 4 4 6 5 5 5 6 7 7 7 8 10 12 11 11 11 9 7 5 4 3 3 3 3 3 2 1 1 1 1 2 2 3 4 6 7 9 9 9 9 8 8 7 7 6 8 7 7 7 8 8 9 11 12 12 12 13
2 0 1 3 3 3 4 2 0 3 2 3 1 3 4 3 3 4 6 5 4 3 2 4 4 5 5 4 6 5 6 5 4 3 5 6 7 8 8 7 9 11 12 12 12 9 8 6 4 3 3 3 3 2 2 2 2 2 3 3 3 5 6 8 9 10 11 10 8 8 8 8 7 7 8 9 9 10 10 10 10 11 12 12 12 12
2 1 1 3 3 4 5 1 2 3 3 1 1 3 4 4 2 1 4 3 2 2 2 3 1 4 6 5 6 4 6 7 6 3 3 5 7 8 8 8 9 10 11 12 11 8 7 6 4 3 4 4 4 4 4 5 6 5 6 6 6 7 8 9 11 11 11 9 8 8 8 9 9 10 10 11 12 13 12 13 13 12 12 13 12 12
1 2 3 4 4 4 3 1 2 3 4 0 2 4 4 3 2 1 3 2 1 3 3 4 2 2 4 6 6 3 4 6 6 4 3 2 6 7 8 9 9 9 10 10 9 8 7 6 5 5 6 6 5 6 6 6 7 7 7 8 8 9 9 10 11 10 9 7 7 7 8 9 10 10 11 11 12 13 13 13 13 13 12 13 13 12
1 1 0 2 4 2 1 1 2 3 3 2 3 4 3 3 3 3 4 1 1 2 3 4 3 0 5 6 5 3 0 4 6 6 5 1 4 7 9 10 10 10 9 9 9 8 8 7 6 6 6 6 7 7 7 7 6 6 6 6 7 7 8 8 7 7 7 7 7 7 7 9 10 10 11 12 12 13 13 12 12 12 12 12 13 13
1 1 1 3 2 1 1 1 0 2 2 3 5 3 3 3 3 3 3 1 2 2 4 4 2 0 4 6 3 2 1 6 7 6 6 2 4 8 10 11 11 11 11 10 10 9 8 7 6 6 6 7 7 7 6 5 4 4 4 4 4 4 4 5 6 6 6 7 7 7 8 9 9 10 11 11 12 12 12 13 12 12 12 12 12 13
1 2 1 2 2 3 4 2 2 2 3 5 5 3 3 3 3 3 2 2 3 3 6 4 2 0 3 5 4 3 4 6 6 4 5 4 6 11 12 12 12 12 12 11 10 9 7 5 5 5 5 5 5 3 2 1 1 1 1 1 2 3 5 6 7 8 8 8 8 9 9 10 10 10 11 11 11 12 12 13 13 13 13 13 12 12
2 3 1 1 2 4 6 4 4 3 3 4 3 2 2 3 3 3 4 3 2 4 6 4 3 1 2 5 5 5 6 5 7 6 6 7 9 13 14 13 13 12 11 10 8 7 5 4 4 3 3 2 1 2 3 4 4 4 5 5 5 7 8 9 9 9 9 9 10 10 11 11 12 12 12 13 13 14 14 14 14 14 14 13 13 13
1 0 1 1 1 2 3 2 3 4 3 3 2 3 3 3 4 2 3 2 2 5 3 2 2 1 5 7 6 7 7 6 7 8 10 12 14 15 15 14 13 11 10 9 7 6 6 5 4 4 5 6 7 7 8 9 8 9 9 7 7 8 9 8 8 8 9 9 10 11 12 12 13 14 14 15 15 16 16 17 17 17 17 16 16 15
2 2 1 1 1 1 2 1 1 1 2 2 2 3 3 2 3 3 4 2 3 3 2 3 2 2 5 5 5 8 6 4 6 8 11 15 16 15 15 14 12 11 10 8 8 8 8 9 9 10 11 11 11 12 12 11 11 10 9 8 7 8 8 7 8 8 9 10 12 12 13 14 14 15 15 16 16 17 17 18 18 19 18 19 19 18
0 3 1 1 1 0 1 1 2 2 3 2 3 4 3 3 2 3 4 2 4 4 3 4 2 3 3 2 4 8 8 5 3 7 10 13 14 15 15 14 13 12 10 9 10 11 12 12 13 13 13 13 13 13 12 11 10 9 8 8 7 8 8 8 8 9 10 12 13 13 14 15 15 16 16 16 16 17 17 18 18 17 18 18 18 18
1 4 2 1 1 1 1 2 1 3 2 1 2 4 2 2 3 1 3 4 2 3 3 3 3 4 3 4 5 5 6 3 2 6 10 13 14 15 15 15 15 13 11 11 12 13 14 14 14 13 13 12 12 11 11 10 9 8 8 8 7 8 8 8 9 10 11 12 12 13 14 15 15 15 15 16 16 16 16 16 16 16 17 17 17 18
1 3 2 2 2 1 0 2 0 1 1 1 2 1 2 3 5 4 1 1 3 1 3 2 3 5 3 4 5 4 0 2 1 5 9 13 14 15 15 16 16 14 13 13 14 14 15 15 14 13 12 12 11 11 10 10 9 8 8 8 7 8 8 8 9 10 11 11 12 13 14 14 14 14 15 16 16 16 15 15 16 16 16 17 18 18
2 2 3 1 1 1 1 0 2 2 1 2 2 3 2 2 4 3 0 3 4 0 4 2 3 5 2 2 5 3 4 6 5 5 7 10 13 15 17 18 17 16 15 16 17 17 16 15 14 14 13 12 11 11 10 9 8 8 8 7 7 7 7 8 8 9 10 10 11 12 12 13 13 14 15 16 16 16 15 16 16 17 17 17 18 18
2 1 4 0 1 2 2 1 2 4 3 2 2 2 1 2 1 2 1 1 1 2 4 4 4 3 3 4 3 4 9 9 8 7 6 9 14 17 18 20 19 18 18 19 19 19 18 16 15 14 13 13 12 11 9 8 8 7 7 7 6 6 7 7 8 8 8 9 10 10 11 12 13 14 15 15 16 15 16 17 17 17 18 18 18 18
2 1 3 2 1 2 2 1 2 1 3 2 1 1 1 3 3 1 1 3 2 2 3 4 5 3 6 6 6 9 12 11 10 9 7 12 18 20 20 22 22 20 20 21 21 20 19 17 16 15 14 13 12 11 9 8 7 7 6 6 6 6 6 6 5 6 6 7 9 9 10 11 12 13 14 15 15 15 17 17 17 18 18 18 18 18
3 1 3 3 2 1 1 2 4 5 3 2 1 0 1 1 2 1 1 1 3 2 2 1 4 6 6 4 7 10 10 10 12 10 9 15 21 21 20 23 23 21 21 22 23 22 20 19 17 16 15 13 12 11 9 8 7 7 6 5 5 5 4 3 3 4 5 7 8 8 9 11 11 12 13 13 14 15 16 16 17 18 18 17 18 18
1 2 2 2 2 2 4 3 2 4 4 4 4 3 3 3 3 2 3 2 2 2 3 3 3 8 6 4 6 7 6 8 10 10 11 18 23 20 19 21 21 20 21 23 24 23 22 20 19 18 16 14 13 12 11 9 8 7 6 4 3 2 2 2 3 4 5 6 7 8 9 10 10 11 11 12 13 15 16 16 17 17 16 17 18 18
2 3 2 2 3 3 3 2 1 1 2 4 2 1 3 3 4 5 3 3 1 1 1 3 2 8 7 3 4 6 6 7 9 11 14 19 22 19 16 18 20 19 21 24 24 23 23 22 21 20 18 16 15 14 12 10 8 7 5 4 3 3 3 3 3 5 5 5 6 7 8 8 8 9 10 12 14 14 15 15 15 15 16 17 18 18
2 3 1 3 3 2 3 2 1 2 3 2 2 1 3 2 3 5 4 3 3 3 3 2 3 8 6 3 4 8 9 9 11 14 18 20 21 19 16 16 18 20 22 24 25 24 24 24 23 21 19 18 16 14 12 10 9 7 6 6 5 4 3 3 3 5 4 4 5 5 5 6 7 9 10 12 13 13 14 14 14 15 16 16 17 18
1 1 2 1 4 5 5 4 3 3 0 2 2 1 3 3 5 3 2 3 1 5 6 5 5 8 6 4 4 6 5 8 12 16 20 21 21 22 18 15 17 21 24 25 26 26 27 26 24 23 21 19 17 15 13 11 10 8 7 6 5 4 3 3 3 4 3 3 3 3 4 6 7 9 10 11 12 12 13 13 14 14 15 16 17 17
2 1 3 4 2 3 3 3 3 2 1 2 1 2 3 4 5 3 2 3 3 4 6 6 7 7 6 6 7 6 4 6 10 14 20 22 22 23 20 16 16 20 25 27 28 29 29 28 26 24 22 20 18 16 14 13 11 10 8 7 6 5 4 4 3 3 2 2 1 3 4 6 7 8 10 11 11 12 12 13 13 14 15 16 16 17
2 1 2 5 6 6 5 5 4 2 2 2 2 3 5 5 4 4 4 3 5 3 3 9 9 9 12 9 6 7 5 6 7 11 18 22 23 23 21 16 14 18 24 27 29 31 31 30 28 25 23 21 19 17 16 14 12 11 9 8 7 6 5 4 3 3 2 1 1 3 5 6 7 8 9 10 11 11 12 13 14 15 16 16 17 17
4 1 3 5 6 6 5 5 2 1 3 6 5 4 6 7 6 6 6 6 6 4 7 10 7 8 16 12 7 8 7 5 7 12 20 24 24 23 20 16 13 17 24 29 31 33 33 32 30 27 24 22 20 19 18 15 14 12 10 9 8 7 6 5 4 3 2 1 2 3 4 5 7 8 9 9 10 11 12 14 15 16 17 18 18 19
4 2 3 2 5 6 3 2 2 3 4 5 6 7 8 9 10 12 13 9 8 7 13 8 7 9 17 12 8 9 10 10 14 19 22 21 21 22 19 15 15 18 27 32 34 35 35 33 31 28 26 24 22 20 19 16 14 13 11 10 8 7 6 5 4 3 1 0 1 3 4 5 6 7 7 8 9 11 13 14 16 17 18 19 20 21
3 3 2 2 4 7 3 3 2 4 4 4 7 10 9 10 14 15 13 11 10 14 18 13 9 14 19 14 8 11 14 15 18 19 18 17 20 21 19 19 20 23 29 34 36 37 35 34 32 30 28 26 24 22 19 17 15 13 11 10 9 8 7 5 4 3 2 1 1 2 3 4 5 6 7 8 10 12 14 15 16 18 18 20 21 21
2 3 1 3 2 7 4 4 3 2 4 6 10 11 9 9 11 12 12 8 8 14 18 14 12 18 20 12 9 16 20 17 16 19 22 24 24 23 23 23 23 27 32 35 37 37 36 34 32 31 29 26 24 22 20 18 15 13 12 11 10 9 7 6 5 4 3 2 0 2 2 4 5 7 8 10 12 14 15 16 17 18 19 20 21 22
2 1 1 5 2 6 4 5 6 4 3 8 13 13 12 11 9 10 9 8 11 15 14 7 8 16 15 5 7 15 18 16 17 23 28 29 27 24 24 23 25 29 34 37 39 38 37 36 34 32 30 27 25 22 19 17 16 14 13 12 10 9 8 7 6 5 3 2 1 2 3 4 6 8 10 11 13 14 16 17 17 18 19 20 21 22
3 3 1 3 1 6 5 4 4 6 5 8 12 11 13 13 11 8 6 9 14 14 9 7 11 15 7 3 5 8 9 12 19 26 30 31 29 25 23 23 25 31 36 38 40 39 38 36 34 32 29 26 24 21 19 17 16 15 13 12 11 10 9 8 6 5 3 2 2 2 4 5 7 9 10 12 13 14 15 16 17 18 19 20 21 22
3 5 3 2 2 5 7 5 4 5 5 8 6 3 6 10 12 12 10 12 13 11 9 10 13 12 7 4 8 9 9 12 18 23 25 25 24 23 21 21 25 31 36 38 39 39 38 36 33 30 28 25 24 22 19 18 16 15 14 12 11 10 9 8 6 4 3 2 1 2 4 6 7 9 10 11 13 14 15 16 17 18 19 21 22 23
5 5 2 2 2 3 4 5 4 5 8 7 5 3 3 5 9 10 11 12 12 14 15 16 17 17 15 14 15 16 15 15 17 19 19 20 22 23 20 20 24 31 36 39 39 39 38 36 34 31 29 26 24 23 21 19 17 15 14 13 11 10 9 8 6 5 3 1 1 2 4 6 7 8 10 11 12 13 14 16 17 19 20 22 24 25
7 6 3 2 2 1 1 2 3 8 9 10 11 5 4 3 4 2 10 13 13 14 15 18 21 20 17 21 23 19 16 15 15 18 21 22 24 24 22 21 24 30 35 38 40 40 38 37 34 32 30 27 25 23 21 19 17 16 14 12 11 10 9 8 6 5 3 1 1 3 4 6 7 8 10 11 12 13 15 17 19 21 22 24 25 26
5 5 2 2 3 2 2 3 4 7 11 13 10 4 4 4 5 4 6 9 8 12 15 17 18 17 17 22 21 13 10 8 9 17 27 29 27 26 26 25 25 30 35 38 39 38 36 34 32 31 29 27 25 23 21 19 17 15 14 13 12 10 9 8 7 5 2 1 1 3 5 6 7 9 10 11 12 14 16 19 20 22 24 25 26 28
2 2 4 5 3 2 1 5 5 5 7 8 6 3 2 3 6 7 2 5 5 14 20 17 13 15 15 14 9 7 5 2 4 16 30 33 31 29 27 27 28 32 36 38 38 36 34 33 31 30 28 27 25 23 21 20 18 15 14 13 12 11 10 9 6 4 2 0 2 3 5 6 7 9 10 12 14 16 18 20 22 24 25 27 28 29
4 3 4 4 1 2 3 4 4 5 7 6 5 4 2 4 6 4 3 7 7 13 19 16 12 16 14 10 12 13 6 1 5 17 28 29 28 28 26 27 31 33 36 37 36 35 35 33 32 30 28 27 26 24 22 19 17 15 15 14 13 12 11 9 6 4 2 1 2 4 5 6 8 9 11 13 16 18 20 21 23 25 26 28 29 30
4 3 2 3 4 4 4 4 5 6 6 6 6 5 3 6 7 6 5 10 6 6 14 18 16 17 15 15 17 12 7 8 10 18 23 23 24 25 26 28 32 35 36 36 34 34 34 33 32 31 29 28 26 23 21 19 17 16 16 15 14 13 10 8 6 4 3 2 2 4 5 6 8 10 12 14 16 18 20 22 23 25 26 27 29 30
1 0 1 3 5 5 6 6 7 5 6 7 7 9 10 7 5 3 5 8 4 3 10 16 18 18 16 20 21 15 19 24 19 15 15 19 25 27 27 28 32 34 34 35 35 34 34 33 32 31 29 27 25 22 20 19 18 17 17 16 14 12 10 7 5 4 2 2 3 4 5 6 8 10 12 14 16 18 20 22 23 25 27 28 30 31
3 1 1 3 3 4 5 5 5 6 10 13 13 14 11 5 2 7 7 4 4 6 7 12 17 19 18 24 27 26 27 27 22 16 14 20 27 29 29 30 32 33 33 34 34 35 35 34 32 30 28 26 24 22 21 20 19 18 17 15 13 11 9 7 5 4 3 2 3 4 4 6 8 10 12 14 17 18 20 22 24 26 28 29 31 32
7 5 3 4 5 3 2 2 3 8 8 16 16 8 6 7 9 9 7 9 12 14 14 16 19 20 21 26 31 32 28 23 21 20 18 22 27 29 30 32 33 34 35 35 36 36 35 34 32 30 28 26 24 22 22 20 19 18 17 15 13 11 8 7 5 4 2 2 2 3 4 6 8 11 13 15 17 19 21 23 25 27 29 30 31 32
6 7 5 4 5 5 4 6 7 6 7 24 22 7 12 23 24 16 10 11 15 16 18 20 21 22 25 28 30 32 30 26 24 23 23 26 29 30 31 32 33 35 36 37 37 36 34 33 32 29 27 26 25 24 22 20 18 17 16 14 12 10 8 7 5 3 1 1 2 3 5 7 9 12 14 16 18 20 22 24 25 27 29 29 30 31
9 8 4 3 6 6 5 9 7 3 7 26 27 18 18 28 32 27 22 21 21 21 21 21 22 24 25 28 28 29 30 29 27 26 26 28 31 33 33 33 34 36 37 37 36 35 33 31 30 29 28 27 26 25 23 20 17 16 15 13 12 10 8 6 4 2 1 2 3 5 6 9 10 13 14 16 19 21 22 24 26 26 28 29 29 29
8 5 2 0 3 6 11 13 12 8 8 19 28 29 25 24 27 28 29 30 30 30 29 27 27 26 25 27 28 29 31 31 29 27 27 29 32 34 34 34 35 36 37 36 35 34 32 30 29 29 29 28 27 24 22 20 18 16 14 12 11 9 7 6 4 2 2 3 5 6 8 9 11 13 16 17 19 22 23 25 26 26 27 29 29 28
4 7 5 2 2 5 9 8 10 15 21 25 31 33 32 32 34 34 35 36 37 36 34 31 30 27 25 27 29 30 31 31 30 29 29 31 34 35 36 35 36 37 36 36 36 35 34 32 31 31 30 28 26 23 21 20 18 16 14 12 10 9 7 5 4 3 4 5 6 8 9 11 12 14 17 18 20 22 23 24 25 26 27 28 29 29
3 8 7 5 5 9 10 7 7 14 24 29 30 29 31 36 39 38 39 41 41 40 38 34 31 28 28 29 29 30 30 30 30 30 30 32 34 36 36 36 36 37 37 37 37 36 34 33 32 31 30 27 25 23 21 19 17 15 14 12 9 8 7 5 5 5 6 7 8 9 11 12 14 15 17 19 20 22 24 24 25 26 26 27 29 29
9 8 6 5 6 9 13 15 14 14 21 30 36 36 38 43 43 41 42 41 40 41 41 38 35 33 32 32 30 30 30 31 31 31 31 33 35 36 38 38 37 38 39 38 37 35 34 33 32 30 28 26 24 22 20 18 16 14 12 10 9 8 7 7 7 7 7 8 9 10 12 13 15 16 18 20 21 22 23 24 25 26 26 25 26 26
10 5 3 3 6 9 11 17 16 10 12 26 35 36 37 39 39 40 42 41 40 40 40 39 39 37 35 35 34 32 34 34 33 33 34 35 37 38 40 40 39 39 39 38 36 35 33 31 30 28 26 24 22 20 18 16 14 13 11 10 9 8 8 8 8 8 9 9 10 12 13 14 16 17 19 21 21 21 21 21 23 25 26 24 22 21
15 11 7 7 11 16 21 28 24 15 15 28 36 35 32 31 31 33 37 39 38 38 37 37 39 39 38 39 38 36 36 36 35 35 36 36 37 39 39 40 40 39 39 38 36 34 32 30 28 26 24 22 20 18 16 14 13 12 11 10 9 8 9 9 9 9 10 11 12 13 14 15 16 17 18 20 21 21 21 21 21 22 24 23 21 20
Wind_Direction
56 64 66 177 199 197 228 182 140 125 115 122 110 91 111 210 285 278 288 318 14 351 270 247 268 280 282 282 287 298 306 293 273 264 258 253 247 244 241 236 229 228 223 209 205 208 230 268 291 293 290 281 274 277 284 292 310 324 345 356 352 354 353 348 348 346 344 347 353 357 1 8 7 5 10 5 3 7 3 0 359 356 356 355 353 353
54 84 110 218 197 170 183 170 118 86 79 84 99 77 46 225 265 274 290 313 353 354 273 324 317 285 279 282 287 297 302 290 273 255 254 251 243 241 235 224 217 215 212 203 197 194 195 199 189 225 298 307 318 325 328 340 357 8 23 22 9 5 357 348 349 348 345 346 349 352 356 5 9 5 4 1 3 10 6 0 358 355 355 354 351 351
42 106 210 216 160 108 76 108 107 87 85 70 89 90 17 296 277 298 314 322 351 338 280 350 344 291 286 287 284 288 274 280 289 256 247 236 221 216 212 208 204 206 208 202 195 186 177 159 136 116 105 94 78 70 63 66 60 49 43 35 25 12 359 349 351 354 350 346 346 350 353 358 5 3 356 354 356 1 2 356 351 348 350 351 349 348
48 199 209 172 150 112 52 46 87 86 79 60 77 103 283 316 360 315 305 324 327 290 286 331 328 288 297 310 292 284 268 276 283 263 248 218 202 187 188 198 199 202 204 196 187 179 174 158 140 122 111 103 94 94 92 93 87 69 48 32 30 6 348 345 352 355 351 346 345 351 356 356 3 359 349 352 348 345 349 346 341 338 341 348 348 346
93 254 162 118 123 135 95 42 79 94 31 3 96 124 175 285 309 255 286 323 325 357 340 346 333 296 321 338 295 300 307 289 277 260 240 200 189 180 180 186 191 197 193 185 180 178 178 168 149 126 110 102 102 118 134 134 120 67 355 350 358 333 321 325 336 344 347 348 347 352 358 357 5 358 346 352 345 339 343 338 336 334 336 344 344 343
89 266 157 112 52 76 111 56 116 138 35 335 231 167 161 178 220 274 311 342 15 23 7 25 3 294 317 311 260 301 340 310 301 268 217 192 183 180 175 172 178 185 183 180 180 181 183 177 161 137 134 139 151 195 224 238 262 278 294 303 308 303 304 313 325 336 344 348 350 356 1 1 11 10 357 356 352 354 355 348 346 340 335 337 337 337
108 72 103 126 100 70 81 73 239 146 104 18 221 173 152 143 148 342 353 13 32 301 316 44 94 259 317 298 245 306 339 309 309 295 219 191 190 187 173 171 175 179 183 185 187 188 186 184 176 170 193 202 207 233 248 255 265 268 273 279 284 289 298 312 326 337 344 350 355 1 2 1 7 9 4 358 351 354 355 351 351 346 338 335 332 331
94 62 47 72 86 76 81 110 210 134 106 238 190 137 131 122 145 140 66 72 244 277 334 22 78 209 297 276 256 306 332 308 303 278 276 178 183 185 173 174 174 175 182 186 189 190 184 190 189 191 216 229 230 244 255 260 269 273 274 277 282 290 303 318 332 343 352 359 2 3 360 355 359 1 360 356 350 350 350 347 347 346 342 338 333 330
78 91 132 97 76 86 175 214 187 134 84 240 189 138 148 146 146 132 90 88 301 345 319 330 29 161 264 276 306 1 225 270 263 245 266 290 155 160 161 166 166 167 171 171 174 177 180 192 200 209 228 245 251 257 266 271 277 282 285 288 291 300 316 331 347 359 7 10 5 3 1 355 357 358 356 355 352 349 348 345 343 341 339 337 334 331
68 358 196 138 100 171 206 354 126 123 71 166 152 102 78 81 82 85 84 102 28 10 256 276 5 264 266 279 312 27 213 238 243 247 257 241 147 145 147 152 157 159 159 159 164 171 183 196 211 231 246 258 266 270 276 279 281 284 288 298 307 327 350 8 23 25 23 21 14 12 11 7 6 4 360 356 352 350 348 346 345 343 339 336 332 329
32 50 69 83 88 144 126 57 18 63 101 130 118 76 53 35 40 56 50 87 56 317 251 263 312 193 279 278 230 198 218 203 195 228 246 209 149 145 146 149 154 155 156 161 167 175 187 203 224 250 262 266 273 278 281 281 262 264 320 5 29 55 56 51 47 41 37 34 30 27 23 19 15 11 6 360 356 355 353 350 350 349 346 341 336 330
12 46 22 68 107 119 106 69 21 37 95 112 94 68 45 346 6 28 356 35 86 271 260 264 283 165 224 262 239 235 249 212 178 180 189 177 150 144 147 151 155 156 160 165 171 177 183 200 220 235 243 236 165 122 116 110 110 107 95 84 84 80 67 56 49 42 38 34 32 30 26 23 21 17 13 10 7 4 2 1 358 354 351 347 343 337
357 26 326 67 144 143 110 67 20 13 39 73 66 59 49 350 1 1 322 350 200 246 270 267 274 235 233 244 248 253 258 240 210 185 168 165 154 147 149 152 155 159 162 164 164 168 171 172 172 160 149 138 128 122 116 112 107 102 97 90 83 75 64 54 47 41 37 37 37 34 31 28 25 22 18 16 14 10 8 6 2 358 355 352 350 347
349 312 355 50 278 185 139 132 23 346 39 87 119 89 83 62 31 317 282 301 275 262 283 284 282 280 271 265 238 236 252 253 222 199 174 163 156 153 155 155 159 162 163 162 158 156 155 148 142 138 134 131 127 119 112 108 104 100 95 87 77 73 68 59 52 48 44 43 41 37 33 30 26 22 20 17 16 14 10 8 4 1 360 357 355 355
98 290 287 121 269 92 165 216 172 137 108 134 161 118 120 145 143 256 248 242 285 294 297 301 279 199 231 270 228 239 271 290 230 199 184 171 162 161 162 163 165 165 161 158 153 149 147 142 139 136 132 127 121 116 113 110 106 103 97 89 82 79 77 69 60 53 46 42 39 35 30 27 24 21 20 19 17 15 12 10 7 5 5 4 2 1
155 254 253 311 300 119 210 248 129 98 105 194 155 97 91 170 150 165 195 191 237 317 301 279 235 217 220 268 283 288 287 283 190 186 184 179 174 170 170 169 168 167 162 158 157 152 148 145 143 138 132 128 125 123 124 121 118 112 102 95 89 83 77 67 58 48 43 40 35 31 28 25 24 21 20 19 18 17 15 11 9 9 9 9 7 5
91 271 290 356 348 62 61 253 15 56 198 170 117 144 223 150 118 112 207 300 68 22 283 261 255 295 318 283 309 360 196 238 217 186 186 182 180 179 179 174 172 171 164 161 162 159 156 153 149 144 139 138 138 139 138 132 127 119 107 99 88 80 73 62 53 46 42 39 32 30 27 23 22 19 18 19 18 17 15 11 11 11 10 8 6 5
142 264 299 50 142 323 351 70 39 24 71 101 125 215 221 112 94 99 355 351 42 231 280 302 261 293 328 276 317 20 183 227 244 215 203 195 190 191 187 179 176 173 167 166 165 165 164 162 159 153 151 152 152 151 148 139 129 120 110 100 87 76 68 58 51 47 42 37 32 30 27 24 22 20 19 19 18 15 11 10 12 11 9 9 8 6
132 266 298 303 173 306 339 120 27 9 35 93 150 178 127 131 122 71 122 259 356 285 287 308 291 263 215 224 260 216 201 211 221 221 221 212 205 200 190 181 178 174 171 170 169 171 171 169 168 163 163 165 162 159 155 145 136 127 115 102 88 71 62 55 47 43 38 34 33 31 30 29 25 25 24 22 19 15 11 13 13 12 12 12 10 8
100 118 283 261 191 314 351 190 225 306 36 57 76 8 32 153 164 136 136 175 209 259 274 314 325 271 230 216 196 206 208 195 196 205 213 214 209 203 192 184 182 178 175 174 174 176 176 175 174 172 174 174 169 169 165 155 149 136 118 101 85 73 68 62 52 43 38 39 40 37 36 34 31 30 28 24 20 15 15 17 15 14 14 12 10 10
70 114 252 288 317 279 235 213 201 178 143 115 125 183 274 140 141 201 302 134 141 175 198 287 306 269 247 210 187 209 215 198 195 195 201 211 208 202 194 189 185 181 178 178 179 180 180 181 179 178 181 180 176 178 173 166 161 139 117 101 88 85 86 81 69 59 53 53 51 45 41 39 36 33 28 24 19 17 19 19 17 16 14 10 10 11
107 143 191 267 295 228 235 259 207 172 162 155 164 182 178 151 121 123 298 311 102 151 181 162 268 271 258 206 199 216 215 211 211 200 200 208 204 200 196 190 187 184 181 182 183 183 185 186 185 184 184 183 185 186 180 175 165 142 127 122 119 126 131 115 98 79 67 63 53 44 42 38 34 32 27 22 19 19 19 17 17 16 11 8 9 8
146 112 120 240 229 216 263 303 91 148 132 127 157 181 140 136 125 132 220 254 134 144 168 118 254 270 262 215 214 236 241 241 233 216 212 210 200 194 191 185 184 184 182 184 185 186 188 189 188 188 187 187 190 190 184 177 166 155 154 160 173 182 172 144 109 89 76 65 51 42 39 34 30 29 22 17 16 16 15 13 13 11 7 7 7 4
115 96 88 288 295 329 332 346 50 32 74 115 260 177 142 165 141 144 174 175 153 184 155 102 272 269 275 271 250 260 267 266 249 224 216 212 200 191 188 181 179 182 183 185 185 186 189 190 190 190 190 191 192 190 185 179 175 175 174 176 185 190 178 149 108 96 89 69 52 44 34 26 26 22 14 11 11 10 10 10 8 6 4 3 2 2
215 147 100 4 333 339 348 354 341 341 36 216 243 192 176 135 103 118 134 90 260 220 157 143 246 255 273 308 303 286 283 274 253 226 213 210 198 189 189 184 181 185 187 186 186 187 190 191 192 192 193 193 192 190 186 183 185 184 180 181 188 194 184 153 127 113 107 88 63 46 28 21 17 10 6 7 8 8 9 7 4 2 360 359 360 359
200 206 130 130 192 260 273 284 272 255 235 231 194 194 210 157 134 154 123 110 245 233 151 172 235 263 293 320 323 314 314 289 257 219 207 208 197 189 191 190 186 189 192 190 189 189 191 192 193 193 193 194 193 192 190 187 188 186 186 189 192 198 195 169 153 144 134 130 88 40 24 14 5 2 4 6 7 7 7 4 1 360 358 359 359 356
103 234 194 170 192 212 205 216 215 162 169 216 204 201 200 191 170 132 112 175 201 178 199 223 238 283 291 285 293 292 277 266 248 210 204 206 198 193 196 195 191 194 197 196 192 191 192 191 193 194 194 195 194 193 191 189 190 190 192 197 198 201 199 183 172 168 163 148 60 30 14 3 358 0 3 3 4 3 1 360 359 359 0 360 357 355
89 290 243 191 222 235 201 210 227 157 212 217 210 206 193 188 168 153 192 210 152 133 259 239 200 250 269 256 237 252 250 243 242 220 210 205 199 197 201 204 205 203 201 199 194 193 193 192 193 194 195 196 195 193 191 190 190 191 195 200 200 199 196 186 181 180 168 105 31 7 358 360 1 3 3 1 1 359 357 358 359 0 1 359 358 358
116 232 239 174 261 268 226 233 245 210 236 229 211 213 197 181 180 193 216 207 158 201 253 244 172 223 260 257 223 227 228 218 220 217 212 208 202 200 208 225 233 216 204 199 196 195 195 194 195 196 196 197 195 194 193 192 192 193 197 200 197 196 195 190 188 188 178 215 338 353 5 9 5 3 2 359 357 357 358 359 0 0 360 358 359 360
145 221 220 138 286 288 291 310 263 205 251 271 239 228 211 196 199 209 221 210 198 232 253 262 266 265 267 259 225 230 241 235 229 224 220 216 210 212 229 246 240 218 204 200 197 195 195 196 197 197 197 196 195 195 195 193 194 195 197 198 197 198 197 193 195 199 205 246 307 21 25 13 4 360 359 358 359 1 2 2 1 360 358 357 357 357
165 238 203 104 327 295 305 354 356 202 224 255 257 245 223 213 218 226 233 220 218 247 256 264 278 276 269 254 219 231 239 238 236 233 229 224 223 232 244 243 227 210 202 199 196 195 195 196 197 197 196 196 195 195 196 195 195 196 197 198 198 198 195 194 202 208 213 228 114 70 35 11 8 4 2 3 4 4 3 1 359 356 354 354 354 353
154 230 22 75 359 282 310 4 336 318 270 260 267 254 226 214 215 219 220 200 202 230 248 258 259 262 264 230 198 226 228 226 234 237 236 236 238 244 242 229 215 206 201 198 195 194 195 196 197 197 196 196 195 195 197 198 197 196 196 197 197 195 194 196 201 207 208 185 113 71 24 10 9 6 4 4 2 0 359 357 353 351 351 351 352 352
147 144 132 109 197 269 303 335 322 352 347 276 262 242 217 212 217 228 233 215 208 213 225 225 234 251 265 148 197 231 216 218 236 241 243 246 248 247 238 226 218 209 202 198 196 195 196 197 197 197 197 196 196 196 198 198 198 196 194 194 194 193 193 196 197 199 192 151 104 38 14 9 5 3 2 360 359 357 355 352 350 350 351 351 351 350
130 122 152 164 181 269 287 314 350 354 300 264 255 216 196 196 204 218 232 224 210 203 217 240 252 264 274 224 222 232 217 224 240 245 246 246 240 232 224 220 216 208 201 197 196 195 196 196 195 196 196 196 197 197 195 194 195 194 191 191 192 191 191 194 195 191 180 148 79 24 13 7 1 359 359 358 358 355 353 352 352 352 352 351 351 349
144 120 141 178 154 253 300 359 352 265 241 255 284 256 188 162 179 211 244 244 220 214 229 249 258 257 256 249 244 247 248 247 247 245 241 234 224 217 217 217 212 205 200 196 196 197 197 197 196 196 196 196 197 196 194 193 194 193 192 191 191 190 191 194 195 188 177 163 39 13 3 359 358 359 359 359 358 355 353 353 353 354 354 353 352 350
155 145 142 157 158 225 2 87 217 251 266 281 282 242 164 128 125 205 276 260 224 212 222 236 247 251 255 257 255 254 256 254 251 244 235 228 225 222 223 224 216 208 205 201 201 201 200 200 200 198 197 196 195 194 194 193 194 196 194 192 190 192 194 194 194 188 180 193 348 1 359 360 1 0 0 0 358 357 356 356 356 356 355 353 352 350
141 145 150 201 204 191 204 221 254 307 308 289 275 221 166 195 168 160 269 263 216 207 214 223 244 252 251 256 257 248 241 256 271 257 243 235 237 238 235 231 222 213 208 205 203 203 200 198 198 198 198 196 193 194 195 194 196 198 196 193 192 195 195 193 191 190 189 220 2 11 9 9 7 3 4 3 2 2 1 360 358 356 354 354 352 351
104 155 168 199 228 126 146 279 300 311 285 268 262 250 214 210 171 152 244 284 231 218 214 210 232 245 241 249 239 187 192 267 296 262 248 237 235 241 238 229 218 211 207 204 201 198 195 195 196 196 197 196 194 195 196 197 199 200 198 196 194 194 192 190 193 193 188 111 34 23 16 13 10 8 9 7 6 7 5 1 358 356 355 354 352 351
55 34 115 149 212 116 145 238 238 231 246 245 247 268 254 194 176 124 338 288 253 227 215 201 216 241 238 214 176 154 147 211 253 258 252 237 227 231 229 218 209 204 203 201 199 196 195 194 194 194 196 197 197 196 196 199 201 200 198 195 192 192 192 192 192 182 154 96 48 30 18 16 15 15 14 11 8 6 4 0 357 355 354 352 350 349
62 27 80 163 212 181 161 222 239 237 246 245 243 242 184 163 141 77 326 271 251 223 208 196 212 240 232 191 168 156 177 213 241 265 257 233 218 217 214 208 203 200 199 197 196 196 196 195 196 196 197 197 197 196 197 199 199 197 196 193 191 192 191 186 177 158 132 97 55 36 24 21 19 16 13 10 6 3 360 356 354 352 350 349 347 346
86 336 162 183 213 201 194 238 267 255 236 238 222 185 156 129 107 128 242 245 222 204 207 204 222 242 223 185 176 192 220 226 239 266 251 218 207 204 200 200 200 198 198 196 194 195 196 196 198 198 197 197 197 198 199 198 197 196 194 193 191 190 184 174 163 153 137 92 57 38 27 24 17 11 8 4 1 358 355 352 350 348 348 347 345 344
169 181 175 170 192 195 198 233 285 288 246 220 195 172 156 134 211 218 229 269 273 257 243 231 239 246 228 207 207 218 230 232 236 244 230 209 205 200 196 197 197 195 195 195 194 196 196 196 196 196 196 196 198 200 198 196 196 195 192 191 189 183 176 170 164 155 131 84 51 29 20 16 7 2 1 357 353 352 349 348 347 346 345 345 343 342
169 167 194 196 182 159 145 196 255 287 238 175 155 143 162 200 239 244 249 268 265 264 267 260 257 255 242 233 230 229 231 233 231 229 220 207 202 199 198 199 196 194 195 194 195 197 198 197 196 196 196 196 195 196 195 194 194 193 189 188 186 181 176 172 164 148 122 74 30 9 2 359 355 352 351 349 347 346 345 345 345 343 343 342 341 340
187 181 195 213 187 158 168 195 213 269 190 162 158 166 201 214 234 251 257 262 263 265 267 265 267 266 255 246 239 230 227 228 225 221 214 206 200 199 199 198 196 195 196 196 196 197 197 198 197 195 196 194 192 192 192 192 192 191 190 190 186 180 176 169 163 155 130 19 347 346 344 344 345 343 343 342 341 341 342 342 341 341 340 340 340 339
208 189 167 196 199 186 211 218 218 278 179 176 190 219 221 221 235 243 249 260 264 266 269 269 273 273 260 246 237 228 225 226 223 218 214 207 202 200 200 198 197 198 198 198 197 196 196 199 198 195 193 191 190 191 190 188 190 192 192 189 183 180 178 172 175 197 245 308 324 330 331 334 336 335 336 337 337 338 340 339 339 339 338 338 339 338
222 197 128 170 234 262 270 252 235 253 236 205 218 236 239 238 244 246 250 259 263 267 270 270 272 273 260 243 234 229 228 227 222 218 215 208 203 201 200 200 200 201 201 199 198 197 197 199 199 196 193 191 190 191 189 187 190 191 190 187 183 184 188 188 198 238 274 298 312 319 321 325 328 329 333 336 337 338 339 338 338 339 338 338 339 338
232 196 205 245 267 265 267 243 209 227 241 240 243 247 248 250 254 254 256 262 266 269 270 268 268 267 258 247 241 237 234 228 222 220 216 210 207 203 201 203 204 203 203 201 200 200 199 198 197 195 194 193 190 189 190 190 190 190 190 191 191 192 197 204 223 257 281 295 305 310 314 320 326 329 333 337 338 338 338 338 338 339 340 339 338 336
189 175 191 219 226 235 252 253 225 239 251 254 255 255 256 259 261 261 262 264 266 268 267 266 264 260 254 251 245 239 237 231 227 225 220 214 211 206 203 206 206 204 203 203 202 202 200 198 197 195 195 195 191 189 191 191 190 191 192 194 197 201 208 225 247 267 282 291 301 309 315 321 327 331 334 337 338 338 338 339 339 339 340 338 334 332
146 164 180 194 221 247 266 269 264 268 273 268 262 259 260 264 266 267 268 268 268 267 266 265 264 259 255 253 247 240 238 235 232 231 227 221 217 210 206 206 205 203 203 202 201 202 200 197 196 194 194 194 191 190 192 192 192 195 195 198 208 213 222 241 257 273 284 292 303 312 318 323 328 332 333 336 338 339 339 340 338 336 335 333 330 328
154 194 168 167 235 253 258 253 245 243 265 265 263 262 264 267 269 268 269 270 270 271 271 268 264 260 255 252 249 244 242 241 237 233 229 225 220 214 208 206 204 202 201 199 199 198 196 194 195 195 194 193 191 191 194 194 196 199 201 210 220 226 237 252 264 278 289 299 307 314 319 324 328 330 331 333 336 338 339 338 334 331 330 329 327 327
196 219 181 187 238 247 250 253 247 233 245 261 267 270 271 271 271 268 269 271 273 275 276 271 265 262 258 254 251 246 244 243 240 233 227 222 217 212 207 205 203 200 199 198 196 194 192 192 194 195 195 194 192 193 197 198 200 205 211 220 229 237 248 260 274 284 294 303 309 313 319 323 325 328 330 332 333 334 333 332 331 328 327 327 326 326